Wind_Speed
1 1 1 1 2 2 2 2 1 1 1 1 1 2 2 2 3 3 3 3 4 3 3 4 4 5 5 5 5 4 4 5 5 4 5 5 4 5 6 7 7 6 5
1 1 2 2 2 2 2 2 2 2 2 2 2 2 2 3 3 3 4 4 4 4 4 4 5 5 6 6 5 5 5 6 6 6 5 6 5 6 6 7 8 7 6
2 2 3 3 3 2 2 3 2 2 3 3 3 3 3 2 2 3 4 4 5 5 4 5 5 5 5 6 6 6 6 6 6 7 6 6 7 7 6 7 8 8 7
2 3 3 3 3 3 3 3 3 3 3 3 4 4 3 3 3 3 4 4 4 5 5 6 6 5 6 6 7 7 7 7 7 7 7 7 7 7 7 7 8 8 8
3 3 3 4 4 4 3 3 3 3 3 3 3 4 4 3 3 3 3 4 4 4 4 5 6 5 6 7 7 7 7 8 8 8 7 8 8 8 8 8 8 9 9
3 3 3 4 4 3 3 3 3 4 3 4 3 4 3 3 3 3 3 3 4 5 5 5 6 6 6 7 7 7 8 8 8 8 8 8 8 9 8 9 9 10 10
3 3 4 4 4 4 4 4 3 3 3 4 4 4 4 4 4 4 3 4 4 5 5 6 6 6 7 7 8 8 8 8 8 8 9 9 9 9 9 9 10 10 11
3 3 3 4 4 4 4 3 3 3 3 4 4 4 4 4 4 4 4 4 4 5 5 6 7 7 7 7 8 8 8 8 9 9 9 9 9 10 10 10 10 11 11
2 2 2 3 3 4 4 3 3 3 3 4 4 4 4 4 4 5 4 5 5 5 5 6 6 7 7 8 8 9 9 9 10 10 9 9 10 10 10 10 11 11 11
2 2 2 2 3 3 3 3 3 3 3 4 4 4 4 4 5 5 5 5 6 6 6 7 7 7 7 8 8 9 9 9 10 11 11 10 11 11 12 12 12 12 12
3 2 1 1 1 2 2 3 3 3 3 3 4 5 5 5 5 5 5 6 6 6 6 7 7 8 8 8 8 9 9 10 11 11 11 12 12 12 13 13 13 13 13
2 1 1 1 1 2 2 2 3 3 3 3 4 5 5 5 5 5 5 6 7 6 7 7 8 8 8 8 9 9 10 10 10 11 11 11 12 12 12 12 12 13 13
2 1 2 1 1 1 2 2 3 3 3 4 5 6 5 5 5 5 6 7 7 7 6 6 7 7 8 8 9 9 10 10 10 11 11 11 11 12 12 13 13 12 12
3 2 1 1 1 1 2 3 3 3 4 4 4 5 5 5 5 5 6 6 7 7 6 6 6 7 8 8 9 9 10 10 10 11 11 12 12 12 12 13 12 12 13
3 3 2 2 1 2 3 3 4 4 3 3 4 4 5 5 5 5 6 6 6 6 6 6 7 7 7 8 9 10 10 10 11 11 11 11 11 11 11 12 13 13 13
3 3 2 2 2 2 3 3 4 4 3 4 4 3 4 5 5 5 6 7 6 6 6 6 6 7 8 8 8 9 10 10 10 10 11 11 11 11 11 11 12 12 12
3 3 2 2 2 2 3 3 3 3 3 3 4 4 4 5 5 5 6 7 7 7 6 6 7 7 7 8 7 8 9 10 10 10 10 10 10 10 10 11 11 11 11
3 3 3 2 2 2 2 3 3 3 3 4 4 4 4 5 5 5 6 6 6 6 6 6 6 7 7 8 8 8 9 10 10 9 9 9 9 9 9 10 10 11 11
3 3 3 3 3 3 2 3 3 4 4 4 4 4 4 4 4 5 5 5 5 6 6 6 6 6 7 7 7 7 8 8 8 8 8 8 8 8 9 9 9 10 10
3 3 4 4 4 3 3 4 4 5 5 4 4 3 3 3 4 4 4 5 5 5 6 6 6 6 6 6 6 7 7 6 6 7 7 8 8 8 8 8 8 9 10
3 3 4 4 5 4 4 4 5 5 5 5 4 4 4 3 4 3 4 4 4 5 5 6 6 6 5 5 6 6 6 6 7 7 7 7 8 8 8 8 8 9 9
4 4 4 4 4 4 4 5 5 5 5 5 5 5 4 4 4 4 4 4 4 5 5 5 5 5 5 6 6 6 6 6 7 7 7 7 7 7 7 7 7 8 9
5 5 5 5 5 5 5 5 5 5 5 6 6 5 4 4 4 4 4 4 5 5 5 5 5 5 5 5 6 6 6 6 6 6 6 6 7 7 7 7 7 7 8
6 5 6 6 6 6 6 5 6 6 6 6 6 5 5 5 5 4 5 5 5 5 5 5 6 6 6 6 6 6 6 6 6 7 7 7 7 7 7 8 8 8 8
6 6 6 6 6 7 7 7 7 7 7 7 7 6 6 6 5 5 5 6 6 6 6 6 6 6 6 6 6 6 5 6 6 7 7 7 8 8 7 8 8 8 8
6 6 7 7 7 7 8 7 7 7 7 8 7 7 7 7 7 7 6 6 6 6 6 6 6 6 6 6 6 6 6 6 6 6 7 7 8 8 9 9 9 9 8
Wind_Direction
310 306 297 311 311 305 310 294 281 265 267 249 230 220 229 240 244 242 247 246 234 236 247 243 239 245 247 251 254 252 247 236 230 224 219 211 208 211 212 211 208 205 202
285 301 290 300 313 320 323 304 295 271 257 267 256 244 245 251 243 244 246 247 237 240 246 248 250 250 250 250 252 249 245 240 238 238 231 226 226 223 221 218 213 212 210
275 281 274 281 287 298 305 304 298 285 269 261 267 264 257 265 256 253 249 249 247 245 245 249 249 247 246 248 245 245 248 247 243 242 241 237 235 231 229 223 220 219 220
283 273 267 269 277 286 293 298 300 293 289 271 265 266 262 263 270 266 256 253 255 247 246 249 246 245 248 249 247 246 250 251 248 244 245 242 238 234 231 228 227 228 232
282 279 274 274 273 276 286 291 297 294 280 268 261 255 258 261 263 261 263 256 254 250 246 246 246 252 251 252 248 248 249 252 252 248 244 241 240 238 234 231 235 235 238
265 267 277 278 276 281 289 282 284 283 276 271 262 256 260 259 256 259 267 272 262 255 249 247 250 253 253 256 254 251 252 251 254 255 252 248 245 242 238 238 240 241 240
263 261 265 264 271 282 287 287 275 268 275 272 263 258 261 256 258 260 263 270 265 261 253 251 251 252 254 258 258 254 254 252 253 255 256 253 251 249 247 245 241 242 244
267 263 258 259 266 275 279 276 270 262 267 267 260 260 261 258 256 257 259 266 268 267 263 255 250 252 253 256 261 258 255 254 253 255 255 254 254 252 250 248 246 246 250
276 262 255 267 273 276 269 264 266 260 258 258 251 251 255 256 253 253 256 263 266 271 268 257 253 253 252 259 261 259 258 255 252 253 256 256 255 255 253 252 250 249 253
298 274 257 276 277 277 265 262 265 267 261 254 249 243 251 259 257 253 257 263 264 268 269 263 255 255 257 261 260 259 257 253 253 254 257 259 259 256 255 257 256 253 253
333 311 276 278 276 272 268 273 276 275 270 262 254 248 253 259 257 254 257 263 265 266 265 263 260 260 253 256 260 261 258 255 256 255 258 260 262 260 257 258 259 258 258
354 343 319 292 275 269 264 275 279 275 272 266 254 252 253 255 256 255 257 261 265 265 263 261 259 255 254 256 260 263 260 257 259 260 262 264 266 265 263 261 261 260 260
13 355 330 311 294 281 280 282 285 284 275 262 257 254 255 250 249 251 258 263 263 262 263 264 260 257 258 260 263 263 263 261 263 262 262 263 264 264 264 265 264 264 266
9 8 358 344 315 301 299 289 289 290 281 269 262 258 253 249 249 250 258 259 264 263 265 262 260 261 263 262 263 268 267 261 260 261 261 264 264 263 262 264 262 263 266
2 10 12 350 318 305 298 291 305 300 293 286 279 263 256 259 260 256 258 255 260 262 265 265 258 260 267 266 266 269 269 266 263 262 263 265 264 265 266 265 262 261 266
359 0 348 341 326 315 310 306 313 306 296 291 286 274 270 262 264 266 268 267 264 264 264 262 262 267 269 273 274 274 272 271 268 267 268 267 268 267 266 265 264 261 262
5 5 347 340 328 318 317 316 316 316 309 300 292 287 276 265 269 271 272 270 270 271 269 260 262 270 272 274 279 278 276 271 271 273 271 269 267 266 267 267 266 265 263
355 360 357 353 339 327 317 319 321 321 310 302 299 286 273 264 267 271 279 277 272 276 276 269 268 267 268 273 276 277 276 274 272 272 269 268 268 268 267 265 265 264 265
339 346 349 352 346 345 342 316 312 313 308 303 298 289 283 271 271 274 278 282 278 279 277 276 277 273 271 274 274 276 279 278 274 271 270 270 270 271 271 270 265 265 264
335 339 344 344 336 330 332 326 309 304 302 302 298 292 289 280 274 274 278 281 285 287 286 283 284 282 280 283 283 282 286 284 285 279 274 271 270 275 278 277 273 267 270
341 344 342 343 340 336 332 330 323 307 299 297 294 291 290 289 282 277 278 283 286 291 287 282 283 282 284 288 290 289 288 284 283 283 279 273 272 276 280 281 280 277 276
338 332 328 335 336 335 332 329 323 318 310 302 292 284 285 285 284 281 273 277 282 288 289 290 293 288 290 291 293 292 286 283 280 278 278 276 276 281 279 279 281 282 279
328 323 318 320 326 329 331 329 322 312 308 304 297 294 292 283 279 279 271 274 283 286 288 290 296 293 295 295 295 295 289 283 280 278 280 280 278 277 277 277 280 282 280
321 319 314 315 317 318 319 318 318 316 311 307 299 295 290 281 274 274 273 274 281 284 285 286 293 299 298 298 302 295 291 288 284 284 284 279 276 273 272 271 275 276 279
313 315 312 314 316 315 312 312 313 314 313 308 298 291 286 281 272 269 272 274 279 281 281 287 295 301 303 296 295 292 294 292 289 285 283 278 277 274 273 274 276 278 281
314 314 313 315 314 312 311 311 311 312 312 310 303 296 286 276 271 270 271 275 276 280 286 290 291 296 295 293 295 292 291 292 290 290 286 285 286 282 279 276 275 278 281
Height
5870 5870 5870 5869 5869 5869 5869 5869 5869 5869 5870 5870 5870 5870 5871 5871 5871 5871 5872 5872 5873 5874 5874 5875 5876 5876 5877 5877 5878 5879 5879 5879 5880 5880 5881 5882 5882 5883 5884 5885 5886 5887 5888
5870 5869 5869 5869 5869 5869 5869 5869 5869 5869 5869 5869 5870 5870 5870 5870 5870 5871 5871 5872 5872 5873 5874 5874 5875 5875 5876 5877 5877 5878 5878 5879 5879 5880 5880 5881 5882 5882 5883 5884 5885 5886 5887
5869 5869 5869 5868 5868 5868 5868 5868 5868 5868 5869 5869 5869 5869 5869 5869 5870 5870 5870 5871 5871 5872 5873 5874 5874 5875 5875 5876 5877 5877 5878 5878 5878 5879 5879 5880 5881 5882 5883 5883 5885 5886 5886
5868 5868 5868 5868 5868 5868 5868 5868 5868 5868 5868 5868 5869 5869 5869 5869 5869 5870 5870 5870 5871 5871 5872 5873 5873 5874 5875 5875 5876 5876 5877 5877 5878 5878 5879 5879 5880 5881 5881 5882 5883 5884 5885
5868 5867 5867 5867 5867 5867 5867 5867 5867 5867 5867 5868 5868 5868 5868 5868 5869 5869 5870 5870 5871 5871 5871 5872 5873 5873 5874 5874 5875 5875 5875 5876 5876 5877 5878 5878 5879 5879 5880 5881 5882 5883 5884
5867 5867 5866 5866 5866 5866 5866 5866 5866 5866 5867 5867 5867 5867 5867 5868 5868 5868 5869 5869 5870 5870 5870 5871 5872 5872 5873 5873 5873 5874 5874 5875 5875 5876 5876 5877 5877 5878 5879 5879 5880 5881 5882
5866 5866 5866 5865 5865 5865 5865 5865 5865 5866 5866 5866 5866 5866 5867 5867 5867 5868 5868 5869 5869 5869 5870 5870 5871 5871 5871 5872 5872 5872 5872 5873 5874 5874 5875 5875 5876 5876 5877 5877 5878 5879 5880
5865 5865 5864 5864 5864 5864 5864 5864 5864 5865 5865 5865 5865 5865 5866 5866 5866 5867 5867 5868 5868 5868 5869 5869 5869 5870 5870 5870 5871 5871 5871 5872 5872 5873 5873 5874 5874 5874 5875 5875 5876 5877 5878
5864 5864 5863 5863 5863 5863 5863 5863 5863 5863 5864 5864 5864 5864 5865 5865 5865 5866 5866 5866 5867 5867 5867 5868 5868 5868 5869 5869 5869 5869 5870 5870 5871 5871 5872 5872 5872 5872 5873 5873 5874 5874 5875
5863 5863 5863 5863 5863 5862 5862 5862 5862 5862 5863 5863 5863 5863 5864 5864 5864 5865 5865 5865 5865 5866 5866 5867 5867 5867 5867 5867 5868 5868 5868 5869 5869 5869 5870 5870 5870 5870 5870 5871 5871 5872 5872
5862 5862 5862 5862 5862 5862 5862 5862 5862 5862 5862 5862 5862 5862 5863 5863 5863 5864 5864 5864 5864 5865 5865 5865 5865 5865 5865 5866 5866 5866 5867 5867 5867 5867 5868 5868 5868 5868 5868 5869 5869 5869 5870
5862 5861 5861 5861 5861 5861 5861 5861 5861 5861 5861 5861 5861 5861 5862 5862 5862 5862 5863 5863 5863 5863 5863 5863 5863 5864 5864 5864 5864 5864 5865 5865 5865 5865 5865 5865 5865 5865 5866 5866 5866 5867 5867
5861 5861 5861 5860 5860 5860 5860 5860 5860 5860 5860 5860 5860 5860 5861 5861 5861 5861 5862 5862 5862 5862 5862 5862 5862 5862 5862 5862 5862 5862 5863 5863 5863 5863 5863 5863 5863 5863 5863 5863 5864 5864 5864
5861 5861 5860 5860 5860 5860 5860 5859 5859 5859 5859 5859 5859 5859 5859 5860 5860 5860 5860 5860 5860 5860 5860 5860 5861 5860 5860 5860 5860 5861 5861 5861 5861 5861 5861 5861 5860 5860 5861 5861 5861 5862 5862
5861 5860 5860 5860 5860 5859 5859 5859 5858 5858 5858 5858 5858 5858 5858 5858 5859 5859 5859 5859 5859 5859 5859 5859 5859 5859 5859 5858 5858 5858 5859 5858 5858 5858 5858 5858 5858 5858 5858 5858 5859 5859 5859
5861 5860 5860 5859 5859 5859 5858 5858 5858 5857 5857 5857 5857 5857 5857 5857 5857 5858 5857 5857 5857 5857 5857 5857 5857 5857 5857 5857 5856 5856 5856 5856 5856 5856 5856 5856 5856 5856 5856 5856 5856 5857 5857
5861 5860 5859 5859 5859 5859 5858 5858 5857 5857 5857 5856 5856 5856 5856 5856 5856 5856 5856 5856 5856 5856 5856 5856 5856 5856 5855 5855 5855 5855 5854 5854 5854 5854 5854 5854 5854 5853 5853 5854 5854 5854 5854
5860 5860 5859 5859 5858 5858 5858 5857 5857 5856 5856 5856 5855 5855 5855 5855 5855 5855 5855 5855 5855 5855 5855 5855 5855 5854 5854 5853 5853 5853 5853 5852 5852 5852 5852 5852 5851 5851 5851 5851 5852 5852 5852
5860 5859 5859 5858 5858 5857 5857 5857 5856 5856 5855 5855 5855 5854 5854 5854 5854 5854 5854 5854 5853 5853 5853 5853 5853 5853 5852 5852 5852 5851 5851 5850 5850 5850 5850 5850 5850 5850 5850 5849 5849 5849 5849
5859 5859 5858 5858 5857 5857 5856 5856 5855 5855 5854 5854 5854 5853 5853 5853 5853 5853 5853 5853 5852 5852 5852 5852 5852 5851 5851 5851 5850 5850 5849 5849 5848 5848 5848 5848 5848 5848 5848 5847 5847 5847 5847
5859 5858 5858 5857 5857 5856 5856 5855 5854 5854 5854 5853 5853 5852 5852 5852 5852 5852 5852 5851 5851 5851 5851 5851 5850 5850 5850 5849 5849 5848 5848 5847 5847 5847 5846 5846 5846 5846 5846 5846 5845 5845 5845
5859 5858 5857 5857 5856 5856 5855 5854 5854 5853 5853 5852 5852 5852 5851 5851 5851 5851 5851 5850 5850 5850 5850 5849 5849 5849 5848 5848 5847 5847 5847 5847 5846 5845 5845 5845 5844 5844 5844 5844 5844 5843 5843
5858 5857 5856 5856 5855 5855 5854 5853 5853 5852 5852 5851 5851 5850 5850 5850 5850 5850 5850 5849 5849 5849 5848 5848 5848 5847 5847 5846 5846 5846 5845 5844 5844 5844 5843 5843 5843 5843 5842 5842 5842 5841 5841
5857 5856 5855 5855 5854 5854 5853 5852 5852 5851 5851 5850 5850 5849 5849 5849 5849 5849 5849 5848 5848 5848 5847 5847 5847 5846 5845 5845 5844 5844 5844 5843 5843 5842 5842 5841 5841 5841 5841 5840 5840 5839 5839
5856 5855 5854 5854 5853 5852 5852 5851 5850 5850 5849 5848 5848 5848 5847 5847 5847 5847 5847 5847 5847 5846 5846 5846 5845 5845 5844 5843 5843 5842 5842 5841 5841 5841 5840 5839 5839 5839 5839 5838 5838 5837 5837
5855 5854 5853 5853 5852 5851 5850 5849 5849 5848 5847 5847 5846 5846 5845 5845 5845 5845 5846 5845 5845 5845 5845 5844 5844 5843 5842 5842 5841 5841 5840 5840 5839 5839 5838 5838 5837 5837 5837 5836 5836 5835 5835